Date,TemperatureHighF,TemperatureAvgF,TemperatureLowF,DewpointHighF,DewpointAvgF,DewpointLowF,HumidityHigh,HumidityAvg,HumidityLow,PressureMaxIn,PressureMinIn,WindSpeedMaxMPH,WindSpeedAvgMPH,GustSpeedMaxMPH,PrecipitationSumIn
2013-1-1,26,20,10,24,16,8,92,83,73,30.29,30.14,8,3,12,0.00
2013-1-2,35,19,7,19,13,5,93,78,48,30.30,30.20,4,1,9,0.00
2013-1-3,39,30,19,28,24,17,92,79,60,30.41,30.23,10,2,17,0.00
2013-1-4,41,29,20,27,22,18,93,75,51,30.44,30.31,9,1,16,0.03
2013-1-5,46,36,25,33,28,21,86,75,56,30.31,30.09,6,1,14,0.01
2013-1-6,40,31,20,33,24,18,92,77,62,30.39,30.08,16,4,22,0.00
2013-1-7,48,32,19,30,25,17,94,76,49,30.40,30.15,5,2,12,0.00
2013-1-8,55,40,26,34,29,23,89,66,35,30.20,30.07,9,2,12,0.00
2013-1-9,55,46,41,41,35,30,83,67,44,30.46,30.16,11,2,12,0.00
2013-1-10,54,46,41,54,40,28,100,83,50,30.44,29.77,17,5,18,0.55
2013-1-11,65,54,47,53,50,47,100,86,62,29.85,29.72,11,2,15,0.20
2013-1-12,56,45,30,50,39,29,95,81,62,29.97,29.77,15,5,21,0.22
2013-1-13,30,23,15,29,20,13,95,87,80,30.39,29.92,12,4,15,0.00
2013-1-14,26,18,13,20,15,11,93,86,72,30.53,30.39,6,1,6,0.00
2013-1-15,28,22,13,23,17,-100,95,85,76,30.45,30.18,5,-10,8,0.00
2013-1-16,42,28,16,26,21,14,96,77,51,30.20,30.04,9,1,14,0.01
2013-1-17,38,31,21,30,24,18,92,75,54,30.49,30.14,17,3,18,0.00
2013-1-18,56,39,22,31,25,19,90,63,35,30.50,30.11,11,2,16,0.00
2013-1-19,61,49,40,38,33,29,66,55,41,30.13,29.90,10,3,19,0.00
2013-1-20,44,29,22,31,15,10,74,57,47,30.35,30.13,15,5,23,0.00
2013-1-21,22,18,13,15,4,-2,78,55,38,30.43,30.32,16,7,24,0.00
2013-1-22,18,14,11,11,6,-1,88,71,56,30.52,30.40,6,1,8,0.00
2013-1-23,42,25,9,26,17,7,93,73,52,30.40,30.17,13,2,20,0.00
2013-1-24,26,20,13,15,9,5,76,61,52,30.63,30.29,12,5,18,0.00
2013-1-25,42,33,24,23,19,13,71,58,45,30.30,30.12,9,2,13,0.00
2013-1-26,38,30,20,24,17,11,77,59,41,30.41,30.25,7,3,14,0.00
2013-1-27,51,37,29,50,34,20,99,88,66,30.30,29.93,11,5,20,0.04
2013-1-28,73,61,50,64,58,49,98,89,70,29.94,29.79,8,2,11,0.01
2013-1-29,68,60,52,62,58,52,100,93,82,29.79,29.39,12,3,23,1.48
2013-1-30,52,38,26,52,34,19,100,87,72,29.91,29.32,20,7,28,0.13
2013-1-31,30,23,10,23,14,1,83,70,53,30.42,29.91,17,6,31,0.00
2013-2-1,29,17,7,15,6,1,76,62,47,30.52,30.23,10,3,19,0.00
2013-2-2,40,32,27,27,21,14,94,65,53,30.22,30.05,12,3,21,0.00
2013-2-3,34,29,22,29,21,15,98,74,51,30.21,30.00,16,4,26,0.02
2013-2-4,52,36,28,36,28,20,86,72,52,30.00,29.81,17,4,20,0.00
2013-2-5,54,37,26,37,30,24,94,77,53,30.14,29.89,14,2,17,0.00
2013-2-6,51,39,26,35,32,25,98,77,53,30.23,30.04,9,3,15,0.00
2013-2-7,47,41,36,44,38,33,97,88,76,30.06,29.86,15,4,22,0.34
2013-2-8,36,34,30,35,30,27,95,87,80,30.38,30.07,14,4,20,0.00
2013-2-9,40,34,29,36,30,26,91,82,71,30.38,30.01,10,5,17,0.09
2013-2-10,58,47,38,53,41,30,96,81,46,30.02,29.53,21,6,29,0.34
2013-2-11,49,42,32,31,28,25,79,60,45,30.15,29.75,16,5,31,0.00
2013-2-12,42,35,24,31,28,23,96,77,57,30.17,29.95,6,1,9,0.00
2013-2-13,53,41,32,33,31,28,87,69,40,29.96,29.79,9,2,16,0.00
2013-2-14,53,44,35,37,33,29,90,68,48,30.05,29.80,13,3,19,0.00
2013-2-15,41,33,26,29,20,14,83,60,39,30.28,30.06,16,6,21,0.00
2013-2-16,36,26,18,17,15,12,84,64,40,30.29,30.18,12,4,14,0.00
2013-2-17,46,34,18,33,23,14,85,65,41,30.19,29.89,14,5,19,0.00
2013-2-18,57,45,32,48,39,24,94,80,68,29.89,29.52,19,5,37,0.34
2013-2-19,32,26,23,24,16,13,78,67,57,30.32,29.91,17,7,26,0.00
2013-2-20,25,20,15,15,12,9,85,70,59,30.45,30.32,9,2,15,0.00
2013-2-21,31,25,17,30,22,13,97,90,79,30.36,29.84,15,4,20,0.00
2013-2-22,33,30,21,33,27,18,98,90,74,30.08,29.80,9,2,20,0.00
2013-2-23,36,24,14,22,18,13,95,78,54,30.08,30.01,6,1,9,0.14
2013-2-24,44,32,15,29,23,13,96,72,49,30.14,30.04,9,2,11,0.12
2013-2-25,47,38,31,34,30,26,92,73,53,30.08,29.67,17,5,22,0.02
2013-2-26,36,34,32,35,33,31,99,97,94,29.67,29.37,20,7,28,0.91
2013-2-27,34,32,31,32,31,28,98,93,88,29.90,29.67,11,4,18,0.06
2013-2-28,34,32,30,30,29,28,96,89,81,30.12,29.90,11,4,15,0.00
2013-3-1,32,30,27,30,27,23,97,91,81,30.23,30.09,11,5,16,0.01
2013-3-2,33,27,18,24,20,14,90,75,58,30.28,30.22,14,5,20,0.00
2013-3-3,38,28,12,27,20,10,95,75,51,30.23,30.04,8,2,11,0.00
2013-3-4,50,40,34,37,32,27,84,72,57,30.04,29.75,14,6,23,0.01
2013-3-5,38,34,31,34,29,23,97,84,69,30.15,29.80,19,8,34,0.03
2013-3-6,37,31,24,27,24,21,90,75,61,30.39,30.15,22,6,28,0.00
2013-3-7,44,33,19,31,26,17,96,79,59,30.43,30.31,9,2,12,0.00
2013-3-8,51,41,31,37,33,28,89,73,54,30.42,30.18,14,6,20,0.00
2013-3-9,63,51,40,46,39,33,93,66,46,30.18,29.76,15,6,24,0.28
2013-3-10,59,52,44,54,50,41,98,92,57,29.78,29.61,9,2,14,1.05
2013-3-11,43,35,32,40,31,26,94,87,74,30.00,29.71,12,5,21,0.00
2013-3-12,47,36,28,32,27,24,88,70,52,30.22,29.98,23,5,24,0.00
2013-3-13,41,32,26,27,20,18,90,63,45,30.43,30.22,18,6,23,0.00
2013-3-14,55,38,23,35,28,18,87,68,43,30.41,30.08,11,2,15,0.00
2013-3-15,70,52,30,48,40,29,95,67,37,30.10,29.63,6,1,10,0.00
2013-3-16,63,46,38,48,39,33,91,78,54,30.05,29.62,19,4,26,0.00
2013-3-17,38,35,31,34,32,28,96,88,78,30.11,29.78,11,4,18,0.49
2013-3-18,51,39,34,39,33,22,98,82,45,30.03,29.70,16,4,25,0.27
2013-3-19,45,36,29,26,20,15,75,53,30,30.22,30.02,13,3,23,0.00
2013-3-20,35,30,25,30,18,12,83,60,44,30.30,30.13,16,6,27,0.00
2013-3-21,36,28,20,21,15,12,79,61,43,30.15,30.01,8,2,11,0.00
2013-3-22,40,35,29,26,24,20,77,65,51,30.06,29.99,9,3,11,0.00
2013-3-23,52,43,36,35,29,25,69,58,43,30.06,29.84,14,3,18,0.00
2013-3-24,41,32,30,34,30,-100,99,95,74,29.89,29.58,10,-7,15,0.05
2013-3-25,35,31,29,32,29,25,99,90,77,30.21,29.85,13,4,21,0.10
2013-3-26,40,34,27,28,26,22,84,72,56,30.36,30.21,9,3,15,0.10
2013-3-27,47,34,18,30,24,16,96,68,45,30.41,30.30,5,1,9,0.00
2013-3-28,53,44,35,39,32,25,72,63,54,30.36,30.23,9,3,16,0.00
2013-3-29,61,50,38,48,42,35,91,73,55,30.24,30.17,7,2,12,0.00
2013-3-30,56,48,42,47,44,40,98,87,64,30.19,29.91,12,2,17,0.11
2013-3-31,66,54,45,52,45,34,99,75,41,29.94,29.83,17,3,24,0.00
2013-4-1,47,41,35,34,26,20,74,56,38,30.24,29.95,12,6,18,0.00
2013-4-2,48,37,22,27,19,16,85,51,30,30.37,30.25,9,2,12,0.00
2013-4-3,52,42,30,29,24,19,69,51,35,30.41,30.25,12,3,20,0.00
2013-4-4,59,47,36,29,26,23,68,46,29,30.25,30.02,8,2,13,0.00
2013-4-5,68,53,38,39,35,26,78,52,30,30.18,30.00,7,2,12,0.00
2013-4-6,76,64,52,50,41,36,65,45,27,30.00,29.66,11,4,20,0.00
2013-4-7,78,66,50,59,50,45,84,60,32,29.89,29.71,12,4,18,0.00
2013-4-8,80,69,59,63,58,54,86,70,54,29.81,29.64,9,2,14,0.00
2013-4-9,79,70,65,64,61,58,84,73,59,29.82,29.75,12,3,16,0.00
2013-4-10,73,63,54,66,60,53,99,89,78,29.83,29.55,21,3,21,1.56
2013-4-11,56,45,40,56,41,32,100,86,72,29.73,29.62,12,4,18,0.12
2013-4-12,44,40,36,35,33,31,82,76,67,30.00,29.71,8,3,21,0.00
2013-4-13,61,48,35,42,37,33,91,67,44,30.06,29.88,9,3,15,0.00
2013-4-14,81,64,48,57,49,43,80,60,32,29.88,29.54,13,5,25,0.00
2013-4-15,64,58,49,62,55,47,98,92,72,30.01,29.69,13,3,26,0.24
2013-4-16,49,46,42,47,45,42,98,96,92,30.14,29.93,9,3,15,1.42
2013-4-17,84,58,47,71,55,46,100,92,60,30.12,29.63,11,4,17,0.10
2013-4-18,75,57,41,67,54,34,100,89,77,29.77,29.51,23,5,24,1.45
2013-4-19,50,43,37,32,30,28,76,62,44,30.05,29.73,20,6,33,0.00
2013-4-20,57,44,30,37,30,25,92,59,31,30.32,30.06,8,2,13,0.00
2013-4-21,62,52,43,45,39,34,72,62,48,30.40,30.22,14,7,19,0.00
2013-4-22,71,60,46,49,43,38,74,55,35,30.24,29.93,12,4,20,0.00
2013-4-23,60,49,39,54,46,38,99,89,65,30.03,29.87,13,4,18,0.61
2013-4-24,53,43,35,39,34,29,99,74,41,30.23,30.00,11,4,18,0.02
2013-4-25,65,51,38,38,34,31,81,55,32,30.34,30.21,11,2,16,0.00
2013-4-26,60,54,47,49,45,37,85,72,56,30.34,30.23,8,2,19,0.00
2013-4-27,53,51,48,52,50,46,99,95,85,30.26,29.92,6,2,8,0.75
2013-4-28,59,54,46,53,51,46,100,92,79,29.95,29.88,8,2,13,0.00
2013-4-29,81,64,46,64,57,46,99,79,51,29.91,29.71,11,3,16,0.00
2013-4-30,88,74,59,63,59,52,98,66,30,29.89,29.74,10,2,14,0.00
2013-5-1,84,72,58,62,58,53,91,64,39,30.03,29.90,7,2,13,0.00
2013-5-2,67,56,42,62,51,41,98,84,67,30.15,30.01,14,6,20,0.29
2013-5-3,42,41,39,42,40,39,100,99,98,30.08,29.81,12,4,18,2.10
2013-5-4,48,44,39,45,42,39,100,95,84,30.01,29.82,5,1,7,0.01
2013-5-5,63,53,44,58,52,43,100,94,79,30.00,29.89,10,2,10,0.10
2013-5-6,73,62,53,58,55,52,97,80,54,29.98,29.91,10,3,18,0.00
2013-5-7,80,68,56,62,56,45,92,68,31,30.00,29.93,7,2,9,0.00
2013-5-8,83,67,53,62,56,49,99,73,36,30.01,29.92,7,1,11,0.00
2013-5-9,74,65,60,66,60,-100,97,87,70,29.94,29.80,7,-10,14,0.16
2013-5-10,63,60,55,61,57,52,98,91,83,29.98,29.81,17,3,17,0.00
2013-5-11,67,58,50,57,46,34,98,67,37,30.15,29.96,19,5,29,0.00
2013-5-12,61,51,38,40,34,29,89,54,32,30.22,30.12,12,3,18,0.00
2013-5-13,75,53,37,49,38,-100,98,65,29,30.21,29.99,6,-24,9,0.00
2013-5-14,93,75,55,62,55,47,83,54,29,29.98,29.73,6,2,13,0.00
2013-5-15,92,79,68,69,60,53,77,54,39,29.87,29.75,7,2,10,0.00
2013-5-16,83,74,62,70,65,58,94,74,52,29.90,29.80,13,2,13,0.00
2013-5-17,76,69,59,69,64,57,95,85,70,29.93,29.87,9,2,13,0.00
2013-5-18,82,72,62,68,66,62,99,81,61,29.97,29.83,9,3,17,0.00
2013-5-19,91,80,69,77,70,66,90,73,52,29.86,29.63,12,3,18,0.00
2013-5-20,83,72,62,72,66,60,99,82,60,29.83,29.64,10,3,21,2.24
2013-5-21,81,71,65,70,61,-100,93,76,65,29.76,0.00,7,-29,11,0.00
2013-5-22,75,68,64,65,60,56,97,78,57,29.83,29.63,9,2,15,0.02
2013-5-23,65,61,55,59,56,52,95,82,74,30.21,29.84,14,4,20,0.00
2013-5-24,70,58,48,51,46,39,96,66,40,30.40,30.21,12,2,16,0.01
2013-5-25,68,60,52,58,52,46,92,77,63,30.32,30.11,10,2,15,0.24
2013-5-26,81,67,57,72,61,51,99,80,65,30.16,29.94,10,4,24,0.53
2013-5-27,80,68,64,74,67,64,100,94,76,30.00,29.71,9,1,22,0.34
2013-5-28,85,73,66,77,69,65,97,87,71,29.87,29.74,6,2,18,0.23
2013-5-29,87,77,67,72,67,62,90,72,54,29.90,29.76,9,2,12,0.23
2013-5-30,84,75,65,75,69,64,98,82,67,29.84,29.72,15,4,25,0.25
2013-5-31,80,69,63,75,67,63,100,94,83,29.86,29.65,8,2,21,0.25
2013-6-1,78,69,64,70,64,58,100,87,60,29.86,29.67,8,3,21,0.00
2013-6-2,66,63,58,59,57,53,91,83,74,30.01,29.84,9,3,16,0.00
2013-6-3,71,62,54,56,52,48,92,72,56,30.08,29.97,6,1,10,0.01
2013-6-4,72,64,54,60,56,52,97,77,60,30.06,29.96,9,2,11,0.01
2013-6-5,81,69,57,66,62,56,98,81,45,29.99,29.83,5,1,7,0.00
2013-6-6,76,69,61,66,61,56,100,78,52,29.85,29.79,9,3,14,0.00
2013-6-7,74,65,59,61,59,56,96,80,59,29.89,29.84,9,2,13,0.00
2013-6-8,82,69,55,64,58,55,99,72,43,29.94,29.85,5,1,9,0.00
2013-6-9,77,68,62,66,62,60,97,83,66,29.89,29.75,8,1,15,0.00
2013-6-10,79,69,63,67,64,62,98,85,63,29.88,29.74,9,2,13,0.00
2013-6-11,91,77,61,76,70,60,100,80,59,29.92,29.80,7,1,10,0.00
2013-6-12,93,84,72,78,74,69,92,71,55,29.89,29.67,13,2,19,0.01
2013-6-13,83,75,66,73,65,60,93,73,48,29.96,29.70,16,3,20,0.01
2013-6-14,83,72,61,67,62,59,95,73,54,30.07,29.90,9,2,14,0.00
2013-6-15,89,75,67,75,66,-100,96,77,58,30.06,29.88,16,-10,20,0.00
2013-6-16,84,74,68,76,72,67,99,91,75,29.97,29.87,4,1,8,0.00
2013-6-17,84,75,67,77,72,65,100,90,78,29.91,29.83,7,1,10,0.00
2013-6-18,87,75,64,71,65,61,98,74,42,29.94,29.88,9,2,13,0.00
2013-6-19,90,75,64,69,64,60,89,72,45,30.03,29.95,6,1,9,0.06
2013-6-20,91,80,66,73,69,64,96,72,51,30.07,29.98,8,1,12,0.06
2013-6-21,93,83,72,79,74,69,91,75,59,30.05,29.92,10,2,10,0.00
2013-6-22,88,76,70,80,71,65,95,84,77,30.04,29.95,14,2,17,0.04
2013-6-23,90,72,68,77,66,-100,100,84,65,30.00,29.91,13,-19,21,0.19
2013-6-24,94,80,67,79,73,67,100,81,57,30.03,29.86,4,1,9,0.19
2013-6-25,92,84,75,79,75,72,90,76,63,29.91,29.74,4,1,12,0.00
2013-6-26,92,79,72,81,74,-100,100,87,68,29.80,29.68,11,-9,17,0.56
2013-6-27,92,81,70,76,73,69,100,79,53,29.85,29.74,6,1,11,0.00
2013-6-28,86,80,73,73,67,60,94,68,42,29.82,29.66,11,3,19,0.00
2013-6-29,79,71,66,69,64,61,94,79,64,29.71,29.62,14,3,29,0.23
2013-6-30,77,69,64,66,64,61,95,85,66,29.90,29.72,12,3,14,0.03
2013-7-1,79,71,64,64,57,53,91,63,48,29.96,29.89,11,3,18,0.03
2013-7-2,69,65,61,64,59,54,98,81,58,30.02,29.93,7,2,15,0.03
2013-7-3,82,71,61,67,64,61,100,80,55,30.05,29.97,5,1,12,0.04
2013-7-4,86,74,62,68,64,60,94,71,50,30.06,29.96,6,1,8,0.00
2013-7-5,84,75,66,73,67,63,98,78,55,30.04,29.95,8,2,12,0.00
2013-7-6,89,76,67,73,69,64,99,79,51,30.01,29.91,6,1,7,0.00
2013-7-7,93,80,66,77,71,64,97,76,56,29.99,29.93,9,1,10,0.00
2013-7-8,94,82,74,81,74,69,88,76,58,30.04,29.95,4,1,8,0.00
2013-7-9,94,85,77,80,76,72,88,75,58,29.99,29.86,4,1,9,0.00
2013-7-10,81,78,73,76,73,70,94,85,79,29.93,29.84,9,1,14,0.16
2013-10-19,57,47,46,40,30,-100,78,65,54,29.96,29.92,5,-34,12,0.00
2013-10-20,72,56,40,48,43,38,92,65,37,29.95,29.81,6,2,14,0.00
2013-10-21,56,49,34,46,40,32,94,72,48,30.05,29.89,7,2,15,0.00
2013-10-22,61,43,32,48,39,31,98,88,59,30.05,29.79,11,2,23,0.15
2013-10-23,49,41,35,38,34,29,95,78,50,30.14,30.00,8,2,13,0.15
2013-10-24,46,39,25,38,31,24,93,74,49,30.41,30.12,10,2,18,0.00
2013-10-25,56,39,24,36,29,23,97,70,36,30.51,30.19,8,1,10,0.00
2013-10-26,63,49,39,44,35,28,74,59,39,30.20,30.00,9,2,16,0.00
2013-10-27,61,43,28,44,31,26,98,69,33,30.12,30.00,4,0,7,0.00
2013-10-28,68,51,33,47,40,31,97,70,39,30.22,30.04,6,1,7,0.00
2013-10-29,57,54,48,56,48,39,99,82,60,30.23,30.03,8,2,12,0.12
2013-10-30,70,63,57,68,62,57,100,96,88,30.04,29.78,4,1,10,0.07
2013-10-31,65,60,47,65,59,46,99,96,91,29.77,29.36,5,2,15,0.15
2013-11-1,60,51,46,47,45,42,99,81,59,29.85,29.59,9,2,18,0.16
2013-11-2,55,46,34,43,40,33,97,79,54,30.18,29.84,10,2,15,0.00
2013-11-3,58,45,32,46,36,31,99,73,43,30.29,30.12,11,2,14,0.00
2013-11-4,60,52,47,48,43,37,80,71,60,30.20,30.07,14,3,14,0.00
2013-11-5,59,56,52,55,52,48,98,88,79,30.23,29.95,9,2,12,0.07
2013-11-6,59,48,35,58,46,33,99,92,81,30.26,29.87,13,3,18,0.62
2013-11-7,56,41,28,41,34,28,99,79,45,30.38,30.27,9,1,15,0.00
2013-11-8,58,45,28,40,34,27,98,69,37,30.36,30.04,10,2,15,0.01
2013-11-9,67,54,43,44,40,36,79,59,37,30.23,30.02,10,2,14,0.00
2013-11-10,55,45,37,38,33,29,77,65,40,30.42,30.24,6,1,10,0.00
2013-11-11,62,46,31,51,39,28,94,77,58,30.51,30.11,19,4,22,0.05
2013-11-12,35,28,18,28,19,14,88,71,53,30.79,30.51,15,4,20,0.05
2013-11-13,47,31,15,24,17,14,95,61,27,30.72,30.29,8,2,13,0.00
2013-11-14,60,44,29,27,21,18,66,44,21,30.29,30.02,11,2,17,0.00
2013-11-15,59,48,41,43,36,27,88,66,41,30.05,29.90,7,2,12,0.02
2013-11-16,65,58,47,61,54,44,92,86,77,29.90,29.59,10,3,19,0.00
2013-11-17,75,63,48,66,52,30,96,70,30,29.95,29.34,22,5,38,0.18
2013-11-18,55,45,35,41,34,28,91,69,37,30.30,29.95,13,2,20,0.00
2013-11-19,48,39,31,32,30,27,94,71,47,30.36,30.21,7,2,12,0.00
2013-11-20,47,40,36,43,35,29,95,82,71,30.21,30.01,12,4,16,0.36
2013-11-21,51,49,45,50,47,43,99,93,84,30.20,30.06,5,1,15,0.10
2013-11-22,46,36,31,45,34,29,99,92,86,30.55,30.21,15,6,19,0.12
2013-11-23,31,25,17,29,18,11,93,75,59,30.76,30.53,12,6,22,0.00
2013-11-24,30,21,12,15,12,9,91,69,43,30.79,30.45,6,1,9,0.00
2013-11-25,35,32,26,26,20,15,72,62,52,30.44,30.18,6,1,10,0.00
2013-11-26,37,31,22,29,23,12,85,72,58,30.28,30.10,19,5,25,0.00
2013-11-27,28,22,17,14,11,10,81,65,46,30.40,30.27,11,4,17,0.00
2013-11-28,45,32,20,26,20,13,77,62,48,30.52,30.24,8,2,13,0.00
2013-11-29,44,34,23,29,24,18,81,67,50,30.59,30.37,9,3,11,0.00
2013-11-30,58,42,29,41,34,27,94,76,53,30.37,30.07,7,1,13,0.00
2013-12-1,56,43,31,44,36,31,98,78,49,30.12,29.88,5,1,7,0.00
2013-12-2,56,44,36,45,39,32,95,82,66,29.90,29.65,5,1,8,0.00
2013-12-3,60,50,41,54,48,40,99,92,75,29.67,29.58,8,1,12,0.00
2013-12-4,68,53,35,58,49,30,99,88,60,29.87,29.47,17,4,21,0.00
2013-12-5,34,26,22,30,18,12,85,72,63,30.32,29.88,16,5,20,0.00
2013-12-6,23,19,14,14,9,4,71,64,55,30.64,30.30,10,5,15,0.00
2013-12-7,22,16,9,9,6,4,81,65,49,30.75,30.50,7,3,12,0.00
2013-12-8,26,23,19,24,20,10,95,87,65,30.49,30.03,10,3,11,0.00
2013-12-9,26,22,18,24,16,12,90,77,63,30.36,30.11,13,3,16,0.00
2013-12-10,34,22,12,17,13,8,83,68,46,30.33,30.25,9,2,23,0.00
2013-12-11,30,21,7,22,12,-1,82,67,46,30.68,30.30,14,4,25,0.00
2013-12-12,41,23,4,17,10,-1,87,61,35,30.66,30.27,7,1,13,0.00
2013-12-13,35,30,22,32,25,16,97,82,62,30.27,29.95,8,2,12,0.24
2013-12-14,33,30,25,33,29,23,98,96,90,30.16,29.85,13,4,24,0.25
2013-12-15,36,27,20,28,23,17,95,86,69,30.20,30.04,8,1,15,0.03
2013-12-16,32,27,22,29,25,21,96,93,84,30.16,30.01,7,2,12,0.03
2013-12-17,42,32,23,32,26,20,97,80,59,30.28,30.14,11,2,17,0.13
2013-12-18,51,36,19,35,26,16,89,69,45,30.27,29.92,14,2,14,0.04
2013-12-19,57,49,40,48,44,35,91,83,70,29.92,29.75,6,1,11,0.04
2013-12-20,63,47,33,58,45,32,96,92,83,29.86,29.68,8,2,14,0.00
2013-12-21,33,32,31,32,31,30,98,97,95,29.84,29.58,4,2,9,0.31
2013-12-22,32,30,22,32,29,19,98,95,87,30.30,29.65,7,2,10,0.00
2013-12-23,22,18,9,19,14,4,90,86,77,30.62,30.31,7,3,10,0.00
2013-12-24,22,14,4,14,7,0,86,73,58,30.66,30.36,9,2,15,0.00
2013-12-25,33,29,22,31,25,14,91,84,70,30.37,30.24,11,2,14,0.00
2013-12-26,47,35,22,39,28,21,97,76,48,30.37,30.23,7,1,13,0.01
2013-12-27,54,40,27,34,30,24,94,69,46,30.38,30.21,5,1,10,0.01
2013-12-28,59,44,32,36,31,28,85,61,36,30.22,29.90,6,1,12,0.00
2013-12-29,40,27,14,32,21,4,89,78,65,30.30,29.84,19,6,21,0.00
2013-12-30,27,17,6,15,5,-1,78,62,47,30.39,30.23,9,2,12,0.00
2013-12-31,43,32,22,25,20,15,79,62,48,30.42,30.15,7,2,12,0.00
2014-1-1,40,31,22,29,25,21,94,78,60,30.15,30.04,11,3,14,0.00
2014-1-2,21,15,4,20,10,0,94,83,70,30.52,30.10,14,6,21,0.00